Location: Hemaruka
(51.7801°N, 111.0917°W)
Time: 10:57:15
(UTC+00:00)

NOAA 15 - Pass Details

Date: 11 December 2023
Orbit: 797 x 810 km, 98.6° (Epoch: 02 March)

Event Time Altitude Azimuth Distance (km) Brightness Sun altitude
Rises 00:07:14 0° 107° (ESE) 3,321 7.4 -7.8°
Reaches altitude 10° 00:10:29 10° 86° (E) 2,392 6.5 -8.2°
Maximum altitude 00:13:30 16° 51° (NE) 2,022 6.1 -8.6°
Drops below altitude 10° 00:16:31 10° 16° (NNE) 2,395 6.7 -9.0°
Sets 00:19:45 0° 355° (N) 3,327 7.6 -9.5°
